GOES 9 [-]

Last updated on July 6, 2021, 3:23 p.m. UTC

1 23581U 95025A   21186.42110259 -.00000189  00000-0  00000-0 0  9991
2 23581  12.3674  26.8505 0008384  73.8725 281.9414  0.98800581 94893
UTC
Height (km)
Latitude
Longitude
Inclination
Orbital Period
UTC large
Height (km)
Speed (km/s)
/
Latitude / Longitude
Inclination (degrees)
Orbital Period (minutes)
Azimuth
Elevation
Range (km)
Doppler Factor
iOS Compass Heading
iOS Angle